Back to catalog

STARLINK-37474

AliveCommunicationsVLEO
NORAD 69167·PAYLOAD·🇺🇸 United States

Launched May 21, 2026 from Cape Canaveral Space Force Station

Loading…

Next Passes (next 24 hours)

TLE

FreshSource: CelesTrak SupGP

Epoch: Sep 14, 2026, 15:45 UTC

1 69167C 26111V   26257.65673611 -.00030431  00000+0 -89891-3 0  2574
2 69167  53.1577  92.9386 0001326  88.9283 246.6616 15.34411928    16

Track STARLINK-37474 in real time with AllMySat

Download on the App Store